| time (UTC) | temp C | wind direction | speed KPH | gust KPH | rain 1hr cm | rain 24hr cm | rain mn cm | humidity % | barometer mb |
| 20260504214204 | 20 | 228 | 12.9 | 20.9 | 0.00 | 0.00 | 0.00 | 32 | 1006.4 |
| 20260504213703 | 20 | 221 | 8.0 | 27.4 | 0.00 | 0.00 | 0.00 | 33 | 1006.3 |
| 20260504213204 | 20 | 213 | 8.0 | 29.0 | 0.00 | 0.00 | 0.00 | 33 | 1006.4 |
| 20260504212703 | 20 | 243 | 9.7 | 25.7 | 0.00 | 0.00 | 0.00 | 32 | 1006.6 |
| 20260504212202 | 20 | 222 | 8.0 | 19.3 | 0.00 | 0.00 | 0.00 | 33 | 1006.5 |
| 20260504211703 | 20 | 274 | 9.7 | 22.5 | 0.00 | 0.00 | 0.00 | 33 | 1006.6 |
| 20260504211203 | 20 | 263 | 11.3 | 32.2 | 0.00 | 0.00 | 0.00 | 32 | 1006.6 |
| 20260504210703 | 20 | 225 | 9.7 | 27.4 | 0.00 | 0.00 | 0.00 | 32 | 1006.5 |
| 20260504205703 | 21 | 198 | 8.0 | 22.5 | 0.00 | 0.00 | 0.00 | 32 | 1006.5 |
| 20260504205203 | 20 | 294 | 3.2 | 27.4 | 0.00 | 0.00 | 0.00 | 33 | 1006.4 |
| 20260504204703 | 21 | 220 | 11.3 | 22.5 | 0.00 | 0.00 | 0.00 | 31 | 1006.4 |
| 20260504204203 | 21 | 215 | 14.5 | 38.6 | 0.00 | 0.00 | 0.00 | 30 | 1006.4 |
| 20260504203704 | 21 | 202 | 14.5 | 32.2 | 0.00 | 0.00 | 0.00 | 31 | 1006.5 |
| 20260504203203 | 21 | 212 | 11.3 | 37.0 | 0.00 | 0.00 | 0.00 | 32 | 1006.4 |
| 20260504202204 | 20 | 221 | 6.4 | 19.3 | 0.00 | 0.00 | 0.00 | 33 | 1006.4 |
| 20260504201203 | 20 | 306 | 9.7 | 22.5 | 0.00 | 0.00 | 0.00 | 31 | 1006.5 |
| 20260504200703 | 21 | 191 | 11.3 | 33.8 | 0.00 | 0.00 | 0.00 | 31 | 1006.5 |
| 20260504200203 | 21 | 226 | 8.0 | 20.9 | 0.00 | 0.00 | 0.00 | 31 | 1006.5 |
| 20260504195703 | 21 | 198 | 8.0 | 32.2 | 0.00 | 0.00 | 0.00 | 30 | 1006.6 |
| 20260504195203 | 21 | 214 | 11.3 | 27.4 | 0.00 | 0.00 | 0.00 | 31 | 1006.5 |
| 20260504194703 | 21 | 207 | 6.4 | 20.9 | 0.00 | 0.00 | 0.00 | 31 | 1006.4 |
| 20260504194203 | 20 | 231 | 6.4 | 27.4 | 0.00 | 0.00 | 0.00 | 33 | 1006.7 |
| 20260504193703 | 20 | 210 | 9.7 | 32.2 | 0.00 | 0.00 | 0.00 | 32 | 1006.7 |
| 20260504193204 | 20 | 219 | 4.8 | 16.1 | 0.00 | 0.00 | 0.00 | 32 | 1006.7 |
| 20260504192703 | 21 | 220 | 11.3 | 27.4 | 0.00 | 0.00 | 0.00 | 30 | 1006.6 |
| 20260504192204 | 21 | 220 | 6.4 | 19.3 | 0.00 | 0.00 | 0.00 | 31 | 1006.6 |
| 20260504191704 | 21 | 309 | 4.8 | 32.2 | 0.00 | 0.00 | 0.00 | 30 | 1006.6 |
| 20260504191203 | 21 | 240 | 17.7 | 33.8 | 0.00 | 0.00 | 0.00 | 30 | 1006.6 |
| 20260504190703 | 20 | 235 | 4.8 | 19.3 | 0.00 | 0.00 | 0.00 | 33 | 1006.6 |
| 20260504190204 | 21 | 254 | 8.0 | 20.9 | 0.00 | 0.00 | 0.00 | 30 | 1006.7 |
| 20260504185703 | 21 | 211 | 12.9 | 24.1 | 0.00 | 0.00 | 0.00 | 31 | 1006.6 |
| 20260504185203 | 20 | 259 | 16.1 | 37.0 | 0.00 | 0.00 | 0.00 | 30 | 1006.7 |
| 20260504184703 | 20 | 234 | 14.5 | 32.2 | 0.00 | 0.00 | 0.00 | 30 | 1006.8 |
| 20260504183703 | 21 | 189 | 14.5 | 37.0 | 0.00 | 0.00 | 0.00 | 29 | 1006.9 |
| 20260504183204 | 21 | 229 | 8.0 | 20.9 | 0.00 | 0.00 | 0.00 | 30 | 1007.0 |
| 20260504182703 | 21 | 220 | 9.7 | 29.0 | 0.00 | 0.00 | 0.00 | 31 | 1007.0 |
| 20260504182203 | 20 | 196 | 11.3 | 32.2 | 0.00 | 0.00 | 0.00 | 29 | 1007.2 |
| 20260504181704 | 20 | 208 | 4.8 | 32.2 | 0.00 | 0.00 | 0.00 | 32 | 1007.1 |
| 20260504180703 | 20 | 209 | 11.3 | 24.1 | 0.00 | 0.00 | 0.00 | 29 | 1007.2 |
| 20260504175703 | 20 | 221 | 14.5 | 32.2 | 0.00 | 0.00 | 0.00 | 28 | 1007.2 |
| 20260504175204 | 20 | 202 | 8.0 | 22.5 | 0.00 | 0.00 | 0.00 | 31 | 1007.3 |
| 20260504174704 | 20 | 211 | 14.5 | 32.2 | 0.00 | 0.00 | 0.00 | 29 | 1007.3 |
| 20260504174203 | 20 | 229 | 16.1 | 32.2 | 0.00 | 0.00 | 0.00 | 30 | 1007.2 |
| 20260504173704 | 20 | 228 | 9.7 | 27.4 | 0.00 | 0.00 | 0.00 | 30 | 1007.4 |
| 20260504173203 | 19 | 253 | 12.9 | 41.8 | 0.00 | 0.00 | 0.00 | 31 | 1007.4 |
| 20260504172203 | 18 | 207 | 16.1 | 37.0 | 0.00 | 0.00 | 0.00 | 30 | 1007.6 |
| 20260504171703 | 19 | 216 | 19.3 | 35.4 | 0.00 | 0.00 | 0.00 | 32 | 1007.6 |
| 20260504171203 | 19 | 233 | 6.4 | 37.0 | 0.00 | 0.00 | 0.00 | 31 | 1007.7 |
| 20260504170203 | 18 | 204 | 16.1 | 37.0 | 0.00 | 0.00 | 0.00 | 32 | 1007.8 |
| 20260504160203 | 17 | 205 | 9.7 | 35.4 | 0.00 | 0.00 | 0.00 | 34 | 1008.3 |
| 20260504150703 | 16 | 208 | 14.5 | 41.8 | 0.00 | 0.00 | 0.00 | 39 | 1008.8 |
| 20260504150203 | 16 | 218 | 11.3 | 25.7 | 0.00 | 0.00 | 0.00 | 42 | 1008.9 |
| 20260504141204 | 15 | 228 | 11.3 | 32.2 | 0.00 | 0.00 | 0.00 | 42 | 1009.3 |
| 20260504140703 | 15 | 217 | 9.7 | 32.2 | 0.00 | 0.00 | 0.00 | 43 | 1009.3 |
| 20260504140203 | 14 | 196 | 9.7 | 35.4 | 0.00 | 0.00 | 0.00 | 43 | 1009.3 |
| 20260504130704 | 12 | 204 | 8.0 | 22.5 | 0.00 | 0.00 | 0.00 | 48 | 1009.7 |
| 20260504120203 | 8 | 228 | 4.8 | 19.3 | 0.00 | 0.00 | 0.00 | 55 | 1010.5 |
| 20260504110704 | 7 | 214 | 11.3 | 22.5 | 0.00 | 0.00 | 0.00 | 58 | 1010.1 |
| 20260504110203 | 7 | 213 | 8.0 | 16.1 | 0.00 | 0.00 | 0.00 | 60 | 1010.1 |
| 20260504100203 | 5 | 204 | 0.0 | 1.6 | 0.00 | 0.00 | 0.00 | 63 | 1010.2 |
| 20260504081225 | 7 | 210 | 3.2 | 4.8 | 0.00 | 0.00 | 0.00 | 57 | 1010.0 |
| 20260504070203 | 7 | 220 | 3.2 | 4.8 | 0.00 | 0.00 | 0.00 | 55 | 1009.6 |
| 20260504060203 | 7 | 230 | 4.8 | 20.9 | 0.00 | 0.00 | 0.00 | 55 | 1009.9 |
| 20260504050704 | 6 | 172 | 1.6 | 3.2 | 0.00 | 0.00 | 0.00 | 55 | 1009.9 |
| 20260504050203 | 6 | 225 | 3.2 | 4.8 | 0.00 | 0.00 | 0.00 | 55 | 1009.9 |
| 20260504045704 | 5 | 219 | 3.2 | 4.8 | 0.00 | 0.00 | 0.00 | 54 | 1010.0 |
| 20260504045204 | 5 | 228 | 3.2 | 8.0 | 0.00 | 0.00 | 0.00 | 55 | 1009.9 |
| 20260504044704 | 5 | 214 | 3.2 | 4.8 | 0.00 | 0.00 | 0.00 | 55 | 1010.0 |
| 20260504044203 | 5 | 217 | 4.8 | 11.3 | 0.00 | 0.00 | 0.00 | 56 | 1010.2 |
| 20260504043703 | 5 | 215 | 4.8 | 11.3 | 0.00 | 0.00 | 0.00 | 57 | 1010.2 |
| 20260504042704 | 5 | 212 | 4.8 | 9.7 | 0.00 | 0.00 | 0.00 | 58 | 1010.2 |
| 20260504042203 | 5 | 214 | 3.2 | 11.3 | 0.00 | 0.00 | 0.00 | 58 | 1010.2 |
| 20260504040705 | 4 | 224 | 4.8 | 8.0 | 0.00 | 0.00 | 0.00 | 60 | 1010.0 |
| 20260504040208 | 4 | 223 | 3.2 | 4.8 | 0.00 | 0.00 | 0.00 | 60 | 1009.8 |
| 20260504035703 | 3 | 221 | 4.8 | 9.7 | 0.00 | 0.00 | 0.00 | 59 | 1009.8 |
| 20260504035203 | 3 | 238 | 4.8 | 9.7 | 0.00 | 0.00 | 0.00 | 62 | 1009.8 |
| 20260504034704 | 3 | 221 | 3.2 | 4.8 | 0.00 | 0.00 | 0.00 | 64 | 1009.7 |
| 20260504033703 | 2 | 225 | 3.2 | 4.8 | 0.00 | 0.00 | 0.00 | 66 | 1009.6 |
| 20260504033203 | 2 | 219 | 3.2 | 8.0 | 0.00 | 0.00 | 0.00 | 68 | 1009.6 |
| 20260504032703 | 1 | 210 | 3.2 | 9.7 | 0.00 | 0.00 | 0.00 | 72 | 1009.6 |
| 20260504032204 | 1 | 244 | 3.2 | 4.8 | 0.00 | 0.00 | 0.00 | 76 | 1009.6 |
| 20260504031703 | 1 | 218 | 1.6 | 4.8 | 0.00 | 0.00 | 0.00 | 78 | 1009.6 |
| 20260504031203 | 1 | 216 | 0.0 | 0.0 | 0.00 | 0.00 | 0.00 | 78 | 1009.6 |
| 20260504030703 | 1 | 216 | 0.0 | 0.0 | 0.00 | 0.00 | 0.00 | 78 | 1009.5 |
| 20260504025703 | 1 | 216 | 0.0 | 0.0 | 0.00 | 0.00 | 0.00 | 78 | 1009.5 |
| 20260504025204 | 1 | 217 | 0.0 | 0.0 | 0.00 | 0.00 | 0.00 | 79 | 1009.6 |
| 20260504024704 | 1 | 216 | 0.0 | 0.0 | 0.00 | 0.00 | 0.00 | 80 | 1009.5 |
| 20260504024204 | 1 | 216 | 0.0 | 0.0 | 0.00 | 0.00 | 0.00 | 78 | 1009.5 |
| 20260504023203 | 1 | 238 | 0.0 | 1.6 | 0.00 | 0.00 | 0.00 | 77 | 1009.6 |
| 20260504022704 | 1 | 220 | 0.0 | 0.0 | 0.00 | 0.00 | 0.00 | 76 | 1009.6 |
| 20260504022204 | 1 | 219 | 0.0 | 0.0 | 0.00 | 0.00 | 0.00 | 76 | 1009.5 |
| 20260504021705 | 1 | 219 | 0.0 | 0.0 | 0.00 | 0.00 | 0.00 | 75 | 1009.5 |
| 20260504021204 | 1 | 219 | 0.0 | 0.0 | 0.00 | 0.00 | 0.00 | 74 | 1009.4 |
| 20260504020703 | 2 | 219 | 0.0 | 0.0 | 0.00 | 0.00 | 0.00 | 73 | 1009.4 |
| 20260504015703 | 2 | 219 | 0.0 | 0.0 | 0.00 | 0.00 | 0.00 | 73 | 1009.3 |
| 20260504015203 | 2 | 220 | 0.0 | 0.0 | 0.00 | 0.00 | 0.00 | 73 | 1009.3 |
| 20260504014203 | 2 | 220 | 0.0 | 0.0 | 0.00 | 0.00 | 0.00 | 73 | 1009.2 |
| 20260504013703 | 2 | 219 | 0.0 | 0.0 | 0.00 | 0.00 | 0.00 | 74 | 1009.1 |
| 20260504013203 | 2 | 219 | 0.0 | 0.0 | 0.00 | 0.00 | 0.00 | 74 | 1009.1 |
| 20260504012704 | 2 | 219 | 0.0 | 0.0 | 0.00 | 0.00 | 0.00 | 73 | 1009.0 |
| 20260504012203 | 2 | 219 | 0.0 | 0.0 | 0.00 | 0.00 | 0.00 | 74 | 1009.0 |
| 20260504011704 | 2 | 219 | 0.0 | 0.0 | 0.00 | 0.00 | 0.00 | 71 | 1009.0 |
| 20260504011204 | 3 | 219 | 0.0 | 0.0 | 0.00 | 0.00 | 0.00 | 69 | 1008.9 |
| 20260504010203 | 3 | 219 | 0.0 | 3.2 | 0.00 | 0.00 | 0.00 | 67 | 1008.8 |
| 20260504005704 | 3 | 219 | 1.6 | 3.2 | 0.00 | 0.00 | 0.00 | 67 | 1008.8 |
| 20260504005204 | 3 | 219 | 1.6 | 3.2 | 0.00 | 0.00 | 0.00 | 66 | 1008.8 |
| 20260504004705 | 3 | 219 | 1.6 | 3.2 | 0.00 | 0.00 | 0.00 | 65 | 1008.6 |
| 20260504004203 | 4 | 219 | 0.0 | 3.2 | 0.00 | 0.00 | 0.00 | 64 | 1008.6 |
| 20260504003704 | 4 | 220 | 1.6 | 3.2 | 0.00 | 0.00 | 0.00 | 62 | 1008.5 |
| 20260504003204 | 5 | 218 | 0.0 | 3.2 | 0.00 | 0.00 | 0.00 | 62 | 1008.5 |
| 20260504002204 | 5 | 228 | 1.6 | 4.8 | 0.00 | 0.00 | 0.00 | 57 | 1008.4 |
| 20260504001703 | 5 | 233 | 1.6 | 3.2 | 0.00 | 0.00 | 0.00 | 57 | 1008.5 |
| 20260504000703 | 6 | 233 | 1.6 | 3.2 | 0.00 | 0.00 | 0.00 | 56 | 1008.3 |
| 20260504000204 | 6 | 234 | 1.6 | 3.2 | 0.00 | 0.00 | 0.00 | 55 | 1008.2 |
| 20260503235704 | 7 | 278 | 0.0 | 1.6 | 0.00 | 0.00 | 0.00 | 54 | 1008.2 |
| 20260503234703 | 7 | 290 | 0.0 | 0.0 | 0.00 | 0.00 | 0.00 | 52 | 1008.1 |
| 20260503233203 | 8 | 289 | 0.0 | 0.0 | 0.00 | 0.00 | 0.00 | 48 | 1008.2 |
| 20260503232704 | 8 | 290 | 0.0 | 1.6 | 0.00 | 0.00 | 0.00 | 46 | 1008.1 |
| 20260503232204 | 8 | 290 | 0.0 | 3.2 | 0.00 | 0.00 | 0.00 | 44 | 1008.1 |
| 20260503231704 | 8 | 288 | 0.0 | 3.2 | 0.00 | 0.00 | 0.00 | 44 | 1007.9 |
| 20260503231203 | 8 | 286 | 1.6 | 4.8 | 0.00 | 0.00 | 0.00 | 43 | 1007.9 |
| 20260503230203 | 8 | 334 | 0.0 | 3.2 | 0.00 | 0.00 | 0.00 | 43 | 1007.8 |
| 20260503225704 | 8 | 288 | 1.6 | 4.8 | 0.00 | 0.00 | 0.00 | 44 | 1007.7 |
| 20260503225204 | 8 | 300 | 1.6 | 3.2 | 0.00 | 0.00 | 0.00 | 42 | 1007.7 |
| 20260503224704 | 8 | 305 | 1.6 | 3.2 | 0.00 | 0.00 | 0.00 | 44 | 1007.7 |
| 20260503224203 | 8 | 304 | 0.0 | 3.2 | 0.00 | 0.00 | 0.00 | 44 | 1007.6 |
| 20260503223704 | 8 | 322 | 1.6 | 4.8 | 0.00 | 0.00 | 0.00 | 44 | 1007.6 |
| 20260503223204 | 8 | 289 | 3.2 | 4.8 | 0.00 | 0.00 | 0.00 | 43 | 1007.5 |
| 20260503222703 | 8 | 294 | 1.6 | 3.2 | 0.00 | 0.00 | 0.00 | 43 | 1007.5 |
| 20260503222204 | 8 | 295 | 1.6 | 4.8 | 0.00 | 0.00 | 0.00 | 43 | 1007.4 |
| 20260503221704 | 8 | 319 | 1.6 | 4.8 | 0.00 | 0.00 | 0.00 | 43 | 1007.4 |
| 20260503221204 | 8 | 294 | 3.2 | 4.8 | 0.00 | 0.00 | 0.00 | 43 | 1007.3 |
| 20260503220704 | 8 | 337 | 0.0 | 3.2 | 0.00 | 0.00 | 0.00 | 45 | 1007.3 |
| 20260503215703 | 8 | 313 | 1.6 | 3.2 | 0.00 | 0.00 | 0.00 | 44 | 1007.3 |